Hourly Data Report for December 17, 2002

TORONTO CITY
ONTARIO

43°40'00.000" N
79°24'00.000" W
112.50 m
6158355
71508
XTO

Download Data

Hourly Data (December 2002)
Hourly Data Report for December 17, 2002
TIME
LST
Temp Definition
°C
Dew Point Definition
°C
Rel Hum Definition
%
Precip. Amount Definition
mm

Wind Dir Definition
10's deg

Wind Spd Definition
km/h
Visibility Definition
km
Stn Press Definition
kPa
Hmdx Definition


Wind Chill Definition


Weather Definition


00:00 -8.8 -12.7 73   LegendMM LegendMM LegendMM 101.13     LegendNANA
01:00 -8.9 -13.5 69   LegendMM LegendMM LegendMM 101.15     LegendNANA
02:00 -9.3 -14.2 67   LegendMM LegendMM LegendMM 101.22     LegendNANA
03:00 -9.3 -14.2 67   LegendMM LegendMM LegendMM 101.30     LegendNANA
04:00 -10.2 -13.4 77   LegendMM LegendMM LegendMM 101.35     LegendNANA
05:00 -9.6 -13.8 71   LegendMM LegendMM LegendMM 101.31     LegendNANA
06:00 -10.0 -13.8 74   LegendMM LegendMM LegendMM 101.41     LegendNANA
07:00 -10.2 -14.4 71   LegendMM LegendMM LegendMM 101.49     LegendNANA
08:00 -9.8 -14.2 70   LegendMM LegendMM LegendMM 101.58     LegendNANA
09:00 -9.8 -14.5 68   LegendMM LegendMM LegendMM 101.56     LegendNANA
10:00 -7.4 -12.4 67   LegendMM LegendMM LegendMM 101.66     LegendNANA
11:00 -5.9 -10.0 73   LegendMM LegendMM LegendMM 101.62     LegendNANA
12:00 -4.7 -7.7 79   LegendMM LegendMM LegendMM 101.56     LegendNANA
13:00 -4.7 -7.7 79   LegendMM LegendMM LegendMM 101.57     LegendNANA
14:00 -4.4 -7.9 77   LegendMM LegendMM LegendMM 101.51     LegendNANA
15:00 -4.0 -7.7 75   LegendMM LegendMM LegendMM 101.50     LegendNANA
16:00 -3.6 -7.3 75   LegendMM LegendMM LegendMM 101.53     LegendNANA
17:00 -3.1 -6.5 77   LegendMM LegendMM LegendMM 101.56     LegendNANA
18:00 -2.7 -6.3 76   LegendMM LegendMM LegendMM 101.57     LegendNANA
19:00 -2.3 -6.0 76   LegendMM LegendMM LegendMM 101.58     LegendNANA
20:00 -1.8 -5.9 74   LegendMM LegendMM LegendMM 101.57     LegendNANA
21:00 -1.6 -5.2 76   LegendMM LegendMM LegendMM 101.57     LegendNANA
22:00 -1.5 -5.4 75   LegendMM LegendMM LegendMM 101.60     LegendNANA
23:00 -1.5 -5.6 74   LegendMM LegendMM LegendMM 101.62     LegendNANA

Notes on Data Quality.

Legend

  • E = Estimated
  • M = Missing
  • NA = Not Available*
  • [empty] = Indicates an unobserved value
Date modified: